When you browse on this site, cookies collect data to enhance your experience and personalize the content and advertising you see.
Visit our Privacy Policy to learn more. By continuing to use the site, you agree to this use of cookies and data.
  • In Austria
  • List of Countries
  • For 7 days
  • Water Temperature
  • Satellite Maps
  • Weather Map
  • News
  • Weather Widgets
  • user-avatar
    Login

    Hourly Weather Coimbra

    Today, 21 March, Thursday

    Time Temperature Precipitation Wind Pressure Humidity
    00:00 +10°C° 0 mm 1 mps 762 mmHg 61%
    01:00 +8°C° 0 mm 2 mps 762 mmHg 62%
    02:00 +8°C° 0 mm 2 mps 762 mmHg 63%
    03:00 +8°C° 0 mm 2 mps 762 mmHg 63%
    04:00 +8°C° 0 mm 2 mps 762 mmHg 63%
    05:00 +7°C° 0 mm 2 mps 762 mmHg 63%
    06:00 +9°C° 0 mm 2 mps 762 mmHg 58%
    07:00 +12°C° 0 mm 2 mps 762 mmHg 53%
    08:00 +14°C° 0 mm 2 mps 762 mmHg 48%
    09:00 +16°C° 0 mm 2 mps 762 mmHg 43%
    10:00 +18°C° 0 mm 2 mps 762 mmHg 37%
    11:00 +21°C° 0 mm 1 mps 762 mmHg 31%
    12:00 +22°C° 0 mm 1 mps 762 mmHg 31%
    13:00 +23°C° 0 mm 1 mps 762 mmHg 30%
    14:00 +23°C° 0 mm 1 mps 761 mmHg 30%
    15:00 +22°C° 0 mm 1 mps 761 mmHg 36%
    16:00 +20°C° 0 mm 1 mps 761 mmHg 42%
    17:00 +17°C° 0 mm 2 mps 761 mmHg 48%
    18:00 +15°C° 0 mm 1 mps 761 mmHg 52%
    19:00 +14°C° 0 mm 1 mps 761 mmHg 56%
    20:00 +12°C° 0 mm 1 mps 761 mmHg 60%
    21:00 +11°C° 0 mm 1 mps 762 mmHg 60%
    22:00 +11°C° 0 mm 1 mps 762 mmHg 60%
    23:00 +11°C° 0 mm 1 mps 762 mmHg 60%

    Tomorrow, 22 March, Friday

    Time Temperature Precipitation Wind Pressure Humidity
    00:00 +11°C° 0 mm 1 mps 762 mmHg 60%
    01:00 +10°C° 0 mm 1 mps 762 mmHg 60%
    02:00 +10°C° 0 mm 1 mps 762 mmHg 60%
    03:00 +10°C° 0 mm 1 mps 762 mmHg 59%
    04:00 +9°C° 0 mm 2 mps 762 mmHg 58%
    05:00 +9°C° 0 mm 2 mps 762 mmHg 57%
    06:00 +12°C° 0 mm 2 mps 762 mmHg 52%
    07:00 +14°C° 0 mm 2 mps 763 mmHg 47%
    08:00 +16°C° 0 mm 2 mps 763 mmHg 42%
    09:00 +18°C° 0 mm 2 mps 763 mmHg 37%
    10:00 +21°C° 0 mm 1 mps 763 mmHg 32%
    11:00 +23°C° 0 mm 1 mps 763 mmHg 27%
    12:00 +23°C° 0 mm 1 mps 762 mmHg 27%
    13:00 +23°C° 0 mm 2 mps 762 mmHg 27%
    14:00 +24°C° 0 mm 2 mps 761 mmHg 27%
    15:00 +21°C° 0 mm 2 mps 761 mmHg 34%
    16:00 +20°C° 0 mm 2 mps 761 mmHg 40%
    17:00 +18°C° 0 mm 2 mps 761 mmHg 47%
    18:00 +16°C° 0 mm 2 mps 761 mmHg 51%
    19:00 +15°C° 0 mm 2 mps 761 mmHg 56%
    20:00 +13°C° 0 mm 1 mps 762 mmHg 60%
    21:00 +13°C° 0 mm 1 mps 762 mmHg 61%
    22:00 +12°C° 0 mm 1 mps 762 mmHg 62%
    23:00 +12°C° 0 mm 1 mps 762 mmHg 63%

    Day after tomorrow, 23 March, Saturday

    Time Temperature Precipitation Wind Pressure Humidity
    00:00 +12°C° 0 mm 1 mps 761 mmHg 62%
    01:00 +11°C° 0 mm 1 mps 761 mmHg 61%
    02:00 +10°C° 0 mm 2 mps 761 mmHg 60%
    03:00 +10°C° 0 mm 2 mps 761 mmHg 60%
    04:00 +10°C° 0 mm 2 mps 761 mmHg 60%
    05:00 +10°C° 0 mm 2 mps 760 mmHg 60%
    06:00 +13°C° 0 mm 2 mps 761 mmHg 55%
    07:00 +15°C° 0 mm 2 mps 761 mmHg 51%
    08:00 +17°C° 0 mm 3 mps 761 mmHg 46%
    09:00 +19°C° 0 mm 3 mps 761 mmHg 41%
    10:00 +21°C° 0 mm 3 mps 760 mmHg 37%
    11:00 +24°C° 0 mm 3 mps 760 mmHg 32%
    12:00 +24°C° 0 mm 3 mps 760 mmHg 31%
    13:00 +25°C° 0 mm 3 mps 759 mmHg 30%
    14:00 +25°C° 0 mm 3 mps 758 mmHg 29%
    15:00 +24°C° 0 mm 3 mps 758 mmHg 34%
    16:00 +23°C° 0 mm 2 mps 758 mmHg 39%
    17:00 +21°C° 0 mm 2 mps 758 mmHg 44%
    18:00 +19°C° 0 mm 2 mps 758 mmHg 48%
    19:00 +18°C° 0 mm 1 mps 758 mmHg 51%
    20:00 +15°C° 0 mm 1 mps 759 mmHg 55%
    21:00 +15°C° 0 mm 1 mps 759 mmHg 54%
    22:00 +15°C° 0 mm 2 mps 759 mmHg 53%
    23:00 +15°C° 0 mm 2 mps 759 mmHg 53%

    24 March, Sunday

    Time Temperature Precipitation Wind Pressure Humidity
    00:00 +14°C° 0 mm 2 mps 758 mmHg 54%
    01:00 +14°C° 0 mm 2 mps 758 mmHg 56%
    02:00 +13°C° 0 mm 2 mps 758 mmHg 58%
    03:00 +13°C° 0 mm 2 mps 758 mmHg 59%
    04:00 +13°C° 0 mm 2 mps 758 mmHg 61%
    05:00 +12°C° 0 mm 2 mps 758 mmHg 62%
    06:00 +14°C° 0 mm 2 mps 758 mmHg 57%
    07:00 +16°C° 0 mm 3 mps 759 mmHg 52%
    08:00 +18°C° 0 mm 3 mps 759 mmHg 46%
    09:00 +20°C° 0 mm 3 mps 759 mmHg 41%
    10:00 +22°C° 0 mm 4 mps 759 mmHg 36%
    11:00 +25°C° 0 mm 4 mps 759 mmHg 31%
    12:00 +25°C° 0 mm 4 mps 758 mmHg 30%
    13:00 +26°C° 0 mm 3 mps 757 mmHg 29%
    14:00 +26°C° 0 mm 3 mps 757 mmHg 28%
    15:00 +25°C° 0 mm 3 mps 757 mmHg 33%
    16:00 +24°C° 0 mm 2 mps 757 mmHg 39%
    17:00 +23°C° 0 mm 1 mps 756 mmHg 44%
    18:00 +21°C° 0 mm 1 mps 757 mmHg 46%
    19:00 +19°C° 0 mm 1 mps 757 mmHg 49%
    20:00 +16°C° 0 mm 1 mps 757 mmHg 52%
    21:00 +16°C° 0 mm 1 mps 757 mmHg 53%
    22:00 +16°C° 0 mm 2 mps 757 mmHg 53%
    23:00 +15°C° 0 mm 2 mps 757 mmHg 54%

    25 March, Monday

    Time Temperature Precipitation Wind Pressure Humidity
    00:00 +15°C° 0 mm 2 mps 757 mmHg 53%
    01:00 +14°C° 0 mm 2 mps 757 mmHg 53%
    02:00 +14°C° 0 mm 2 mps 757 mmHg 52%
    03:00 +13°C° 0 mm 3 mps 757 mmHg 53%
    04:00 +12°C° 0 mm 3 mps 757 mmHg 53%
    05:00 +12°C° 0 mm 3 mps 757 mmHg 54%
    06:00 +14°C° 0 mm 3 mps 757 mmHg 49%
    07:00 +16°C° 0 mm 3 mps 757 mmHg 44%
    08:00 +18°C° 0 mm 4 mps 758 mmHg 39%
    09:00 +20°C° 0 mm 4 mps 757 mmHg 35%
    10:00 +22°C° 0 mm 4 mps 757 mmHg 30%
    11:00 +25°C° 0 mm 4 mps 757 mmHg 26%
    12:00 +25°C° 0 mm 4 mps 756 mmHg 26%
    13:00 +26°C° 0 mm 4 mps 756 mmHg 26%
    14:00 +26°C° 0 mm 4 mps 755 mmHg 27%
    15:00 +25°C° 0 mm 3 mps 755 mmHg 32%
    16:00 +23°C° 0 mm 2 mps 755 mmHg 38%
    17:00 +21°C° 0 mm 2 mps 755 mmHg 44%
    18:00 +20°C° 0 mm 2 mps 755 mmHg 44%
    19:00 +20°C° 0 mm 1 mps 755 mmHg 45%
    20:00 +19°C° 0 mm 1 mps 756 mmHg 45%
    21:00 +18°C° 0 mm 1 mps 756 mmHg 46%
    22:00 +17°C° 0 mm 2 mps 756 mmHg 47%
    23:00 +16°C° 0 mm 2 mps 756 mmHg 47%

    26 March, Tuesday

    Time Temperature Precipitation Wind Pressure Humidity
    00:00 +15°C° 0 mm 2 mps 756 mmHg 49%
    01:00 +15°C° 0 mm 2 mps 756 mmHg 50%
    02:00 +14°C° 0 mm 2 mps 756 mmHg 52%
    03:00 +14°C° 0 mm 2 mps 756 mmHg 53%
    04:00 +14°C° 0 mm 2 mps 756 mmHg 55%
    05:00 +13°C° 0 mm 3 mps 756 mmHg 56%
    06:00 +16°C° 0 mm 3 mps 756 mmHg 52%
    07:00 +18°C° 0 mm 3 mps 756 mmHg 48%
    08:00 +20°C° 0 mm 4 mps 757 mmHg 43%
    09:00 +22°C° 0 mm 3 mps 756 mmHg 39%
    10:00 +24°C° 0 mm 3 mps 756 mmHg 35%
    11:00 +26°C° 0 mm 3 mps 756 mmHg 31%
    12:00 +27°C° 0 mm 3 mps 755 mmHg 30%
    13:00 +27°C° 0 mm 3 mps 755 mmHg 29%
    14:00 +28°C° 0 mm 2 mps 754 mmHg 29%
    15:00 +26°C° 0 mm 2 mps 754 mmHg 35%
    16:00 +25°C° 0 mm 2 mps 754 mmHg 41%
    17:00 +24°C° 0 mm 2 mps 754 mmHg 47%
    18:00 +22°C° 0 mm 1 mps 754 mmHg 50%
    19:00 +20°C° 0 mm 1 mps 754 mmHg 53%
    20:00 +18°C° 0 mm 1 mps 755 mmHg 56%
    21:00 +18°C° 0 mm 1 mps 755 mmHg 55%
    22:00 +16°C° 0 mm 1 mps 754 mmHg 54%
    23:00 +16°C° 0 mm 1 mps 754 mmHg 54%
    Show more